Regional Weather Roundup
Issued by NWS

Home | Current Version | Previous Version | Text Only | Print | Product List | Glossary On
Versions: 1 2 3 4 5 6 7 8 9 10 11 12 13 14 15 16 17 18 19 20 21 22 23 24 25 26 27 28 29 30 31 32 33 34 35 36 37 38 39 40 41 42 43 44 45 46 47 48 49 50
000
ASUS44 KMEG 290810
RWRTN
TENNESSEE HOURLY STATE WEATHER ROUNDUP
NATIONAL WEATHER SERVICE MEMPHIS TN
300 AM CDT MON AUG 29 2016

TNZ002-004-019-021-049-052-054-088>092-290900-
WEST TENNESSEE

CITY           SKY/WX    TMP DP  RH WIND       PRES   REMARKS
MEMPHIS INTL   PTCLDY    82  71  69 E7        30.06S
NWS MEMPHIS      N/A     78 N/A N/A MISG        N/A
JACKSON        PTCLDY    74  73  97 CALM      30.08F
DYERSBURG      CLEAR     75  73  94 MISG      30.08S
UNION CITY     CLEAR     73  72  94 CALM      30.07F
PARIS          CLEAR     73  72  94 E6        30.11S
LEXINGTON      CLEAR     73  73 100 CALM      30.08S
$$

TNZ008-025-027-028-033-062-065-066-290900-
NORTH MIDDLE TENNESSEE

CITY           SKY/WX    TMP DP  RH WIND       PRES   REMARKS
NASHVILLE      CLEAR     73  68  84 N7        30.12S
CLARKSVILLE    CLEAR     72  69  90 E3        30.12S
COOKEVILLE     CLEAR     70  70 100 SW3       30.13S
CROSSVILLE     PTCLDY    68  67  96 CALM      30.19S FOG
$$

TNZ061-075-076-078-094-096-097-290900-
SOUTH MIDDLE TENNESSEE

CITY           SKY/WX    TMP DP  RH WIND       PRES   REMARKS
FAYETTEVILLE   CLOUDY    73  72  94 CALM      30.11S
TULLAHOMA      CLEAR     72  70  94 CALM      30.13F
WINCHESTER     CLEAR     72  70  94 CALM      30.12S
MCMINNVILLE    CLEAR     70  70 100 NE5       30.14R
COLUMBIA       CLEAR    N/A N/A N/A CALM      30.10R
SHELBYVILLE    CLEAR     72  72 100 CALM      30.13R
$$

TNZ017-018-042-046-047-290900-
NORTHEAST TENNESSEE

CITY           SKY/WX    TMP DP  RH WIND       PRES   REMARKS
TRI CITIES     PTCLDY    67  66  97 CALM      30.19F
ELIZABETHTON     N/A     66  63  88 NE5       30.20S
$$

TNZ012-013-036-069-073-074-290900-
CENTRAL EAST TENNESSEE

CITY           SKY/WX    TMP DP  RH WIND       PRES   REMARKS
KNOXVILLE      PTCLDY    71  67  87 CALM      30.14R
OAK RIDGE      PTCLDY    71  69  93 CALM      30.15S
GATLINBURG     PTCLDY    68  68 100 CALM      30.15S
MORRISTOWN     PTCLDY    72  66  83 CALM      30.15F
$$

TNZ083-085-099-290900-
SOUTHEAST TENNESSEE

CITY           SKY/WX    TMP DP  RH WIND       PRES   REMARKS
CHATTANOOGA    CLEAR     73  71  93 CALM      30.12S
$$

SKY/WX REPORTED AS FAIR MEANS FEW OR NO CLOUDS BELOW
12 THOUSAND FEET.




USA.gov is the U.S. government's official web portal to all federal, state and local government web resources and services.